Location: Valencia
(39.4696°N, 0.3770°W)
Time: 00:35:15
(UTC+02:00)

ISS - Visible Passes

Search period start: 31 July 2016 00:00
Search period end: 10 August 2016 00:00
Orbit: 401 x 404 km, 51.6° (Epoch: 30 July)

Date Brightness Start Highest point End Pass type
(mag) Time Alt. Az. Time Alt. Az. Time Alt. Az.
31 Jul 0.2 00:14:10 10° NNW 00:14:46 10° N 00:15:23 10° N visible
31 Jul -1.7 21:41:16 10° WSW 21:44:20 38° NNW 21:47:26 10° NE visible
31 Jul -0.1 23:20:06 10° NW 23:21:29 12° NNW 23:22:53 10° NNE visible
01 Aug 0.1 00:58:14 10° N 00:58:56 11° N 00:58:56 11° N visible
01 Aug -0.3 22:26:11 10° WNW 22:28:14 15° NNW 22:30:17 10° NNE visible
02 Aug 0.1 23:12:05 10° N 23:12:26 10° N 23:12:47 10° N visible
03 Aug 0.1 00:48:13 10° NNW 00:48:54 12° N 00:48:54 12° N visible
03 Aug -0.2 22:17:54 10° NNW 22:19:06 12° N 22:20:17 10° N visible
03 Aug -0.2 23:55:37 10° N 23:56:42 11° N 23:57:37 10° NNE visible
04 Aug 0.0 23:03:13 10° N 23:03:21 10° N 23:03:29 10° N visible
05 Aug 0.0 00:38:15 10° NNW 00:38:55 13° NNW 00:38:55 13° NNW visible
05 Aug -0.6 23:45:34 10° NNW 23:47:31 15° NNE 23:47:38 15° NNE visible
06 Aug -0.4 22:52:54 10° NNW 22:54:12 12° NNE 22:55:28 10° NE visible
07 Aug -0.1 00:28:20 10° NW 00:28:57 14° NNW 00:28:57 14° NNW visible
07 Aug -0.3 22:00:20 10° N 22:00:49 10° N 22:01:17 10° NNE visible
07 Aug -1.1 23:35:32 10° NNW 23:37:41 21° N 23:37:41 21° N visible
08 Aug -0.9 22:42:47 10° NNW 22:44:55 16° NNE 22:46:27 12° NE visible
09 Aug -0.1 00:18:30 10° NW 00:19:02 14° NW 00:19:02 14° NW visible
09 Aug -0.6 21:50:05 10° NNW 21:51:34 12° NNE 21:53:02 10° NE visible
09 Aug -1.7 23:25:33 10° NW 23:27:49 33° N 23:27:49 33° N visible
